Helicity
98 91 117 213 238 299 259 220 166 286 393 426 473 442 370 345 221 175 64 128 193 154
141 169 156 205 227 254 312 385 308 298 378 468 444 454 418 307 187 147 131 206 247 154
146 127 158 228 237 261 255 262 301 352 358 411 466 521 356 272 197 106 269 295 213 145
137 157 197 271 191 181 228 236 269 308 331 471 558 484 310 269 148 262 312 406 230 50
188 256 265 244 168 188 188 169 231 298 365 447 468 317 221 292 226 264 391 270 70 55
222 194 190 168 168 223 229 269 364 428 351 371 308 184 285 206 297 417 399 87 44 25
156 150 155 176 198 210 255 290 294 286 294 252 269 292 255 429 618 398 159 57 57 73
154 148 156 169 160 147 166 167 177 194 193 254 249 272 390 481 304 170 99 65 79 86
192 185 212 252 281 256 230 217 186 164 168 243 343 411 312 264 196 168 147 149 112 109
198 226 242 239 230 239 228 212 225 220 256 293 291 242 251 253 210 177 159 147 120 112
225 235 226 242 247 229 205 175 154 147 134 139 164 188 147 137 163 151 130 82 91 115
198 210 228 249 237 203 183 159 157 148 141 133 102 142 128 135 116 117 116 109 109 125
222 243 271 269 245 227 192 185 154 147 122 99 86 84 110 135 158 148 157 141 135 154
267 248 225 191 170 158 138 112 113 98 105 115 136 200 276 249 193 220 186 185 189 214
Wind_Speed
21 18 16 19 21 20 26 28 28 28 26 23 26 27 30 28 40 37 47 43 47 53
18 20 19 19 21 22 21 27 30 23 19 23 26 25 25 29 36 39 43 45 49 56
20 18 21 24 24 24 25 23 21 19 22 22 23 25 30 35 40 40 45 47 55 51
18 23 22 24 23 22 24 23 23 22 23 23 24 28 31 38 37 39 41 50 55 50
21 24 22 23 25 25 27 24 24 24 25 24 28 28 27 32 33 36 42 50 55 50
21 25 27 29 28 31 31 31 30 29 27 27 29 28 28 27 31 36 44 61 54 49
22 25 28 30 33 33 36 37 35 30 28 29 23 25 24 29 37 41 62 61 56 61
27 29 30 32 33 34 32 32 29 26 25 20 22 26 27 33 38 49 58 60 60 62
30 33 36 39 39 37 34 33 29 26 24 24 26 28 31 36 43 54 57 64 67 67
33 36 38 37 35 35 34 32 31 28 26 25 30 30 37 42 49 57 60 65 69 64
34 35 34 35 36 35 33 32 31 31 30 31 36 33 39 47 54 59 61 60 62 67
31 31 32 34 35 35 35 35 36 36 36 37 39 44 46 51 56 58 64 68 68 68
30 31 34 36 37 39 39 39 39 41 42 43 46 46 47 54 62 68 71 72 72 73
32 32 33 35 36 36 38 38 40 41 43 45 48 52 55 61 64 72 78 81 84 83
Wind_Direction
209 228 256 285 291 290 292 293 290 295 300 295 297 300 305 308 303 307 313 316 321 320
247 267 269 282 283 288 290 296 290 294 290 292 298 301 307 309 301 308 313 316 320 320
272 269 273 287 289 291 299 304 301 294 293 285 289 301 302 304 304 306 314 316 319 319
279 283 281 289 293 295 306 303 297 294 295 291 287 299 298 304 303 309 313 322 321 316
292 298 296 294 303 304 305 302 301 300 297 294 297 299 300 304 310 310 316 323 319 315
310 307 308 310 311 315 313 313 312 308 302 300 300 299 303 305 312 315 319 320 318 316
318 320 318 319 320 321 320 317 314 310 308 306 303 305 304 314 317 316 314 316 316 315
325 325 329 328 327 325 325 327 327 323 320 321 317 314 314 319 315 315 315 317 317 316
333 332 331 330 331 332 334 335 334 332 326 322 324 325 316 313 315 320 318 319 319 317
336 334 335 338 340 340 340 339 338 336 332 326 324 321 319 320 320 319 318 318 317 317
339 340 343 345 344 345 345 344 340 337 332 328 327 327 324 321 322 321 319 319 319 319
349 352 354 354 353 353 351 348 345 342 338 334 330 329 328 327 326 325 322 322 321 321
359 358 355 355 354 351 350 348 346 343 340 336 333 333 333 332 329 327 326 325 324 323
357 358 357 353 351 350 348 346 345 343 342 340 339 338 340 338 334 331 328 326 325 324